TimeGMT,TemperatureF,Dew PointF,Humidity,Sea Level PressureIn,VisibilityMPH,Wind Direction,Wind SpeedMPH,Gust SpeedMPH,PrecipitationIn,Events,Conditions,WindDirDegrees,DateUTC
12:20 AM,28.4,28.4,100,30.09,-9999.0,WSW,3.5,-,N/A,,Clear,250,2013-02-18 00:20:00
12:50 AM,28.4,26.6,93,30.09,-9999.0,Calm,Calm,-,N/A,,Clear,0,2013-02-18 00:50:00
1:20 AM,28.4,26.6,93,30.09,-9999.0,Calm,Calm,-,N/A,,Clear,0,2013-02-18 01:20:00
1:50 AM,26.6,26.6,100,30.09,0.5,Calm,Calm,-,N/A,Fog,Light Freezing Fog,0,2013-02-18 01:50:00
2:20 AM,28.4,28.4,100,30.09,-9999.0,Calm,Calm,-,N/A,,Clear,0,2013-02-18 02:20:00
2:50 AM,26.6,24.8,93,30.09,-9999.0,SSE,2.3,-,N/A,,Clear,160,2013-02-18 02:50:00
3:20 AM,24.8,24.8,100,30.09,-9999.0,Calm,Calm,-,N/A,,Clear,0,2013-02-18 03:20:00
3:50 AM,26.6,24.8,93,30.09,-9999.0,Calm,Calm,-,N/A,,Clear,0,2013-02-18 03:50:00
4:20 AM,24.8,24.8,100,30.09,-9999.0,SE,2.3,-,N/A,,Clear,130,2013-02-18 04:20:00
4:50 AM,24.8,24.8,100,30.09,-9999.0,Calm,Calm,-,N/A,,Clear,0,2013-02-18 04:50:00
5:20 AM,26.6,26.6,100,30.09,-9999.0,Calm,Calm,-,N/A,,Clear,0,2013-02-18 05:20:00
5:50 AM,24.8,23.0,93,30.09,-9999.0,Calm,Calm,-,N/A,,Clear,0,2013-02-18 05:50:00
6:20 AM,24.8,23.0,93,30.09,-9999.0,Calm,Calm,-,N/A,,Clear,0,2013-02-18 06:20:00
6:50 AM,26.6,24.8,93,30.09,6.2,Calm,Calm,-,N/A,Fog,Partly Cloudy,0,2013-02-18 06:50:00
7:20 AM,26.6,24.8,93,30.09,6.2,Variable,3.5,-,N/A,Fog,Partly Cloudy,0,2013-02-18 07:20:00
7:50 AM,26.6,24.8,93,30.09,6.2,Calm,Calm,-,N/A,Fog,Partly Cloudy,0,2013-02-18 07:50:00
8:20 AM,26.6,26.6,100,30.09,6.2,WSW,2.3,-,N/A,Fog,Partly Cloudy,250,2013-02-18 08:20:00
8:50 AM,30.2,28.4,93,30.12,6.2,West,2.3,-,N/A,Fog,Partly Cloudy,270,2013-02-18 08:50:00
9:20 AM,32.0,30.2,93,30.12,6.2,West,2.3,-,N/A,Fog,Partly Cloudy,260,2013-02-18 09:20:00
9:50 AM,33.8,32.0,93,30.12,6.2,Variable,2.3,-,N/A,Fog,Partly Cloudy,0,2013-02-18 09:50:00
10:20 AM,37.4,33.8,87,30.12,5.6,Calm,Calm,-,N/A,,Unknown,0,2013-02-18 10:20:00
10:50 AM,37.4,33.8,87,30.12,6.2,Variable,2.3,-,N/A,,Partly Cloudy,0,2013-02-18 10:50:00
11:20 AM,39.2,33.8,81,30.12,6.2,Variable,2.3,-,N/A,,Partly Cloudy,0,2013-02-18 11:20:00
11:50 AM,41.0,35.6,81,30.12,6.2,Calm,Calm,-,N/A,,Unknown,0,2013-02-18 11:50:00
12:20 PM,42.8,35.6,76,30.12,6.2,Calm,Calm,-,N/A,,Unknown,0,2013-02-18 12:20:00
12:50 PM,44.6,35.6,71,30.09,-9999.0,Variable,2.3,-,N/A,,Clear,0,2013-02-18 12:50:00
1:20 PM,44.6,35.6,71,30.09,-9999.0,Variable,3.5,-,N/A,,Clear,0,2013-02-18 13:20:00
1:50 PM,46.4,35.6,66,30.09,-9999.0,Variable,2.3,-,N/A,,Clear,0,2013-02-18 13:50:00
2:20 PM,46.4,33.8,62,30.09,-9999.0,Variable,3.5,-,N/A,,Clear,0,2013-02-18 14:20:00
2:50 PM,46.4,33.8,62,30.09,-9999.0,Variable,3.5,-,N/A,,Clear,0,2013-02-18 14:50:00
3:20 PM,46.4,33.8,62,30.09,-9999.0,North,4.6,-,N/A,,Clear,360,2013-02-18 15:20:00
3:50 PM,46.4,33.8,62,30.09,-9999.0,North,3.5,-,N/A,,Clear,350,2013-02-18 15:50:00
4:20 PM,44.6,33.8,66,30.09,-9999.0,NNW,3.5,-,N/A,,Clear,340,2013-02-18 16:20:00
4:50 PM,44.6,35.6,71,30.09,-9999.0,North,2.3,-,N/A,,Clear,360,2013-02-18 16:50:00
5:20 PM,41.0,33.8,76,30.09,-9999.0,NE,2.3,-,N/A,,Clear,50,2013-02-18 17:20:00
5:50 PM,37.4,33.8,87,30.09,-9999.0,Variable,2.3,-,N/A,,Clear,0,2013-02-18 17:50:00
6:20 PM,35.6,33.8,93,30.09,-9999.0,Calm,Calm,-,N/A,,Clear,0,2013-02-18 18:20:00
6:50 PM,33.8,32.0,93,30.09,-9999.0,Calm,Calm,-,N/A,,Clear,0,2013-02-18 18:50:00
7:20 PM,32.0,28.4,87,30.12,-9999.0,Variable,3.5,-,N/A,,Clear,0,2013-02-18 19:20:00
7:50 PM,32.0,30.2,93,30.12,-9999.0,Variable,2.3,-,N/A,,Clear,0,2013-02-18 19:50:00
8:20 PM,30.2,28.4,93,30.12,-9999.0,WSW,4.6,-,N/A,,Clear,250,2013-02-18 20:20:00
8:50 PM,33.8,30.2,87,30.12,-9999.0,WSW,4.6,-,N/A,,Clear,250,2013-02-18 20:50:00
9:20 PM,30.2,26.6,86,30.12,-9999.0,Variable,2.3,-,N/A,,Clear,0,2013-02-18 21:20:00
9:50 PM,32.0,28.4,87,30.12,-9999.0,SW,2.3,-,N/A,,Clear,230,2013-02-18 21:50:00
10:20 PM,30.2,26.6,86,30.12,-9999.0,SW,4.6,-,N/A,,Clear,220,2013-02-18 22:20:00
10:50 PM,28.4,24.8,86,30.12,-9999.0,Variable,3.5,-,N/A,,Clear,0,2013-02-18 22:50:00
11:20 PM,28.4,26.6,93,30.12,-9999.0,WSW,4.6,-,N/A,,Clear,240,2013-02-18 23:20:00
11:50 PM,30.2,26.6,86,30.12,-9999.0,WSW,4.6,-,N/A,,Clear,250,2013-02-18 23:50:00